格洛纳斯M-715 COSMOS 2424 [GLONASS-M]

导读 | 星芒AI

COSMOS 2424(GLONASS-M)是俄罗斯GLONASS卫星导航系统的一部分,于2007年10月19日由质子-M火箭发射。该卫星属于GLONASS-M系列,设计用于提供高精度的全球定位和导航服务。它运行在中地球轨道,轨道高度约19,100公里,周期约11小时15分钟。COSMOS 2424增强了GLONASS系统的覆盖范围和可靠性,支持民用和军用应用。其服役期通常为7年,是俄罗斯在全球导航卫星系统(GNSS)领域的重要组成部分。

基本信息
目录编号:
29672
目录名称:
COSMOS 2424 (GLONASS)
国际标识:
2006-062C
轨道中心:
EARTH
卫星名称:
格洛纳斯M-715
卫星全名:
格洛纳斯M-715 COSMOS 2424 [GLONASS-M]
卫星状态:
在轨 (已飞行6928 天)
发射日期:
2006-12-25 UTC
国别 :
俄罗斯(独联体) (CIS)
星等 :
--
轨道信息
数据来源 国际轨道数据
星历时间: 2025-12-12T22:42:07+0800
19小时前
查看轨道信息
半长轴: 25506.365km
偏心率: 0.0019346
轨道倾角: 64.695°
近地点辐角 173.304°
升交点赤经 200.506°
平近点角 186.794°
近地点: 19078.885km
远地点: 19177.575km
周期: 675.667分钟
每日圈数: 2.131228
详细信息
平衡模式:
三轴稳定
覆盖范围:
全球
运营商:
列舍特涅夫卫星信息系统
运营商所在国:
俄罗斯
制造商(研发单位):
列舍特涅夫卫星信息系统
制造商所在国:
俄罗斯
使用方式:
暂无
卫星简介
格洛纳斯(GLONASS )是苏联/俄罗斯研制卫星导航系统。标准配置为24颗卫星,其中18颗卫星就能保证该系统为俄罗斯境内用户提供全部服务。该卫星已退役。
2D轨道图
3D轨道图
轨道高度分析图
轨道倾角分析图
轨道综合分析图
查看轨道综合分析图